Torna al catalogo

ONEWEB-0201

AttivoComunicazioniPO
NORAD 48241·PAYLOAD·🇬🇧 United Kingdom

Lanciato Apr 25, 2021 da Vostochny Cosmodrome

Loading…

Prossimi Passaggi (prossime 24 ore)

TLE

AggiornatoSource: CelesTrak SupGP

Epoca: Sep 14, 2026, 12:08 UTC

1 48241C 21031AH  26257.50574491  .00002389  00000+0  64523-2 0  2573
2 48241  87.8903 271.9017 0001819 102.7204 358.0081 13.14504113    17

Traccia ONEWEB-0201 in tempo reale con AllMySat

Download on the App Store